Weather History for 78762 - July, 2013

Change the Weather History Date:

Thursday, July 18, 2013

  Actual Average Record
Temperature  
Mean Temperature 74 °F -  
Max Temperature 83 °F 80 °F - ()
Min Temperature 66 °F 64 °F - ()
Cooling Degree Days 10    
Growing Degree Days 24 (Base 50)    
Moisture  
Dew Point 67 °F    
Average Humidity 84    
Maximum Humidity 100    
Minimum Humidity 51    
Precipitation  
Precipitation 0.01 in 0.31 in - ()
Sea Level Pressure  
Sea Level Pressure 29.98 in    
Wind  
Wind Speed 6 mph ()    
Max Wind Speed 16 mph    
Max Gust Speed -    
Visibility 6.2 miles    
Events Fog , Rain    
T = Trace of Precipitation, MM = Missing Value Source: Averaged Metar Reports

Daily Weather History Graph

Daily Weather History Graph

Search for Another Location

Airport or City:

Trip Planner

Search our weather history database for the weather conditions in past years. The results will help you decide how hot, cold, wet, or windy it might be!

Date:

Astronomy

Jul. 18, 2013 Rise Set
Actual Time 5:23 AM CST 6:02 PM CST
Civil Twilight 5:01 AM CST 6:24 PM CST
Nautical Twilight 4:34 AM CST 6:51 PM CST
Astronomical Twilight 4:07 AM CST 7:18 PM CST
Moon 2:02 PM CST (7/18) 1:04 AM CST (7/18)
Length of Visible Light 13h 23m
Length of Day
12h 38m
Waxing Gibbous, 78% of the Moon is Illuminated
Jul 18
Waxing Gibbous
Jul 22
Full
Jul 29
Last Quarter
Aug 6
New
Aug 14
First Quarter

Hourly Weather History & Observations

Time (CST) Temp. Heat Index Dew Point Humidity Pressure Visibility Wind Dir Wind Speed Gust Speed Precip Events Conditions
12:00 AM 68 °F - 66 °F 93% 29.84 in 12 mi NNW 6.9 mph - - Rain Light Drizzle
12:00 AM 68.0 °F - 66.2 °F 94% 30.04 in 6.2 mi NNW 6.9 mph - N/A Fog Light Drizzle
1:00 AM 68.0 °F - 66.2 °F 94% 30.02 in 6.2 mi SE 2.3 mph - N/A Fog Patches of Fog
2:00 AM 68.0 °F - 66.2 °F 94% 30.00 in 6.2 mi NNE 6.9 mph - N/A Fog Patches of Fog
3:00 AM 68 °F - 65 °F 86% 29.84 in 12 mi ENE 3.5 mph - - Fog Patches of Fog
3:00 AM 68.0 °F - 64.4 °F 88% 29.98 in 6.2 mi ENE 3.5 mph - N/A Fog Patches of Fog
4:00 AM 68.0 °F - 64.4 °F 88% 29.99 in 6.2 mi NE 10.4 mph - N/A Fog Patches of Fog
5:00 AM 68.0 °F - 64.4 °F 88% 29.99 in 6.2 mi NE 8.1 mph - N/A   Mostly Cloudy
6:00 AM 70 °F - 64 °F 75% 29.86 in 12 mi ENE 8.1 mph - -   Overcast
6:00 AM 69.8 °F - 64.4 °F 83% 30.00 in 6.2 mi ENE 8.1 mph - N/A   Mostly Cloudy
7:00 AM 73.4 °F - 64.4 °F 73% 30.01 in 6.2 mi ENE 3.5 mph - N/A   Mostly Cloudy
8:00 AM 78.8 °F - 66.2 °F 65% 30.02 in 6.2 mi East 4.6 mph - N/A   Mostly Cloudy
9:00 AM 79 °F - 65 °F 53% 29.86 in 12 mi East 11.5 mph - -   Scattered Clouds
9:00 AM 78.8 °F - 64.4 °F 61% 30.02 in 6.2 mi East 11.5 mph - N/A   Mostly Cloudy
10:00 AM 80.6 °F 82.3 °F 64.4 °F 58% 30.02 in 6.2 mi SE 16.1 mph - N/A   Mostly Cloudy
11:00 AM 84.2 °F 85.6 °F 64.4 °F 51% 30.02 in 6.2 mi SSE 9.2 mph - N/A   Mostly Cloudy
12:00 PM 75.2 °F - 69.8 °F 83% 30.01 in 6.2 mi West 13.8 mph - N/A   Mostly Cloudy
1:00 PM 75.2 °F - 69.8 °F 83% 30.01 in 6.2 mi West 11.5 mph - N/A   Mostly Cloudy
2:00 PM 77.0 °F - 69.8 °F 78% 29.99 in 6.2 mi WSW 5.8 mph - N/A   Mostly Cloudy
3:00 PM 75 °F - 69 °F 76% 29.80 in 9 mi WSW 5.8 mph - -   Overcast
3:00 PM 73.4 °F - 69.8 °F 88% 29.97 in 6.2 mi WSW 5.8 mph - N/A   Mostly Cloudy
4:00 PM 73.4 °F - 69.8 °F 88% 29.96 in 6.2 mi WSW 5.8 mph - N/A   Mostly Cloudy
5:00 PM 71.6 °F - 68.0 °F 88% 29.98 in 3.1 mi WSW 6.9 mph - N/A   Mostly Cloudy
6:00 PM 71 °F - 69 °F 90% 29.88 in 3 mi WSW 3.5 mph - - Fog Heavy Fog
6:00 PM 69.8 °F - 68.0 °F 94% 30.01 in 3.1 mi WSW 3.5 mph - N/A   Mostly Cloudy
7:00 PM 71.6 °F - 69.8 °F 94% 30.04 in 3.1 mi South 3.5 mph - N/A   Mostly Cloudy
8:00 PM 69.8 °F - 69.8 °F 100% 30.05 in 5.0 mi SW 2.3 mph - N/A Fog Fog
9:00 PM 70 °F - 69 °F 95% 29.88 in 2 mi WNW 3.5 mph - -   Mist
9:00 PM 69.8 °F - 69.8 °F 100% 30.05 in 2.5 mi WNW 3.5 mph - N/A   Mostly Cloudy
10:00 PM 69.8 °F - 68.0 °F 94% 30.07 in 1.2 mi West 3.5 mph - N/A   Mostly Cloudy
11:00 PM 69.8 °F - 68.0 °F 94% 30.07 in 6.2 mi Calm Calm - N/A   Scattered Clouds